Theta_e
306 306 306 305 309 314 318 321 322 322 322 321 320 320 321 321 320 320 321 323 324 325 326 326 325 325 324 322 321 322 321 323 323 323 323 324 323 322 321 320 321 320 320 321 320 318 320 321 320 320 320 319 319 319 320 319 319 319 319 318 319 317 316 314 313 316 318 316 315 315 314 311 309 306 305 304 304 303 304 305 304 302 303 304 303
306 305 305 303 306 311 315 319 320 320 321 321 320 320 321 321 320 321 321 321 322 324 325 326 327 326 324 323 323 323 323 321 321 324 323 324 324 323 322 321 321 320 320 321 321 321 321 320 320 320 319 319 319 320 320 316 318 318 318 316 314 318 319 316 314 317 314 316 315 314 315 313 308 306 304 303 303 302 302 304 303 302 302 303 300
305 305 305 304 304 307 312 316 319 321 322 321 322 321 321 320 321 321 322 321 322 323 324 324 326 327 326 325 324 324 326 325 325 324 324 324 324 323 323 322 321 321 321 320 321 321 321 321 320 321 320 319 318 318 318 318 318 318 317 318 314 313 316 314 314 317 319 312 313 313 310 310 310 307 306 304 303 302 301 302 302 302 301 301 300
305 305 305 304 303 304 309 313 317 320 320 321 321 321 321 320 321 321 321 321 322 322 321 325 325 326 327 326 326 325 324 324 324 324 324 323 322 323 323 323 322 321 321 321 320 321 321 321 321 321 320 320 319 319 317 317 317 317 317 318 319 315 313 314 313 315 317 314 311 311 309 308 307 310 310 308 302 301 301 301 300 301 301 300 299
305 305 305 304 302 302 305 310 315 317 319 321 321 321 321 321 322 321 321 321 322 321 321 323 323 323 324 322 321 322 321 321 321 320 321 321 322 322 321 322 322 322 322 322 320 321 321 321 321 321 321 320 320 319 319 319 319 319 318 317 318 318 316 315 313 314 316 320 318 308 306 305 306 309 307 310 300 300 299 300 300 300 300 300 300
305 305 306 306 305 304 304 307 311 315 317 320 322 322 322 322 322 322 322 322 322 322 321 322 321 321 320 320 318 318 318 318 317 318 319 319 319 322 322 322 322 322 322 322 321 320 321 321 321 321 321 320 319 319 320 320 319 318 318 319 318 320 320 316 315 313 316 317 318 320 316 312 309 307 307 307 300 299 298 297 298 300 300 299 299
304 304 305 305 305 305 304 304 309 312 316 319 321 322 323 323 323 322 322 322 322 322 322 320 321 321 320 320 320 320 319 320 322 322 322 322 322 321 322 322 321 321 322 322 322 321 320 321 321 321 321 321 320 320 319 319 320 320 320 319 319 319 319 318 316 316 312 313 315 314 312 310 315 309 307 304 304 302 299 296 296 297 298 299 298
304 304 305 305 305 305 305 305 305 310 313 317 319 321 322 322 323 322 322 321 322 322 322 321 320 320 320 320 320 320 320 321 321 322 323 322 321 321 322 321 321 321 321 322 322 322 320 321 321 321 321 321 320 319 320 321 321 320 319 320 320 320 319 318 319 318 314 314 314 313 313 309 309 312 313 310 310 308 305 297 296 294 294 296 298
303 304 304 305 305 305 305 306 306 307 310 313 316 319 321 322 323 323 322 322 322 322 321 321 321 321 321 320 319 320 321 322 322 321 321 321 321 321 321 321 321 321 321 321 322 322 320 321 321 321 321 321 319 320 321 321 321 320 318 318 318 318 319 320 320 319 317 318 313 312 313 311 308 305 304 305 308 306 306 302 299 292 293 294 295
302 302 304 304 305 306 306 306 306 306 307 311 314 317 319 321 322 322 322 322 322 322 321 321 321 320 321 320 320 320 320 321 321 320 320 320 320 320 321 321 321 320 320 321 321 322 322 321 321 321 321 321 318 321 321 320 320 320 320 319 319 319 319 319 319 320 319 320 318 316 311 310 308 305 304 304 302 303 305 299 298 295 293 296 295
301 301 301 302 303 303 303 304 306 306 306 308 311 314 317 319 320 321 322 323 322 321 321 321 321 321 321 321 320 320 320 320 319 320 319 319 319 320 320 320 321 321 321 320 321 321 321 321 321 321 321 320 319 320 320 321 321 321 321 320 319 319 318 318 317 319 320 319 318 318 315 314 310 308 307 305 306 302 299 302 303 299 302 304 295
301 300 301 300 300 300 300 301 303 304 305 306 309 312 314 317 318 319 321 322 322 322 321 321 321 321 321 321 321 321 321 320 319 319 319 318 319 319 320 320 320 320 321 320 320 320 320 320 320 321 320 321 320 321 321 321 321 321 321 320 319 319 320 318 318 317 318 318 318 318 317 318 317 316 314 311 309 310 310 309 309 303 296 297 294
298 299 299 299 299 300 300 300 301 302 303 304 306 310 313 315 317 318 319 321 322 322 321 321 321 321 321 321 321 321 321 321 321 320 321 320 319 319 319 318 319 318 319 319 320 320 319 319 320 320 320 320 321 321 321 321 321 321 320 320 320 319 318 318 318 318 318 317 317 319 319 318 318 318 318 317 315 315 313 309 308 298 300 299 294
299 299 298 298 299 299 300 300 301 301 302 303 304 307 311 313 315 316 318 320 321 322 322 321 321 321 321 321 322 321 321 321 321 321 321 321 321 320 320 319 319 319 319 319 320 320 319 320 320 320 320 321 320 321 321 321 321 320 320 319 319 320 320 319 319 319 319 319 320 318 317 318 318 319 319 318 314 311 308 307 307 294 297 299 289
301 300 300 300 300 299 300 300 300 301 301 302 302 305 308 311 314 315 316 318 320 321 322 322 321 321 321 322 322 322 321 321 322 322 322 321 322 321 320 321 320 320 320 321 320 320 319 319 320 320 320 320 320 320 320 320 320 320 320 320 320 320 319 319 319 319 318 318 318 318 317 316 317 318 318 316 316 314 313 312 309 304 295 291 290
300 298 299 300 300 300 300 300 300 301 300 300 301 304 306 310 312 314 316 317 319 319 321 322 322 322 322 321 321 321 320 321 321 321 322 323 322 322 321 321 321 322 321 321 320 319 319 319 318 319 319 320 319 319 319 319 319 319 319 319 318 319 319 318 318 319 318 318 318 319 317 316 317 317 316 316 315 316 316 316 311 309 307 301 292
300 298 298 299 298 298 298 299 299 300 300 300 301 302 305 308 310 313 315 316 318 319 320 322 322 322 322 322 322 321 321 320 321 321 322 322 323 323 322 322 322 322 322 321 320 319 320 319 319 318 319 319 319 319 319 319 319 318 318 318 318 318 317 318 318 318 318 318 318 318 317 317 317 317 317 316 316 315 315 314 312 310 309 307 300
297 296 296 296 296 296 296 297 298 299 299 300 300 301 304 307 309 311 313 314 317 318 319 321 321 321 322 322 322 322 322 321 322 322 322 322 322 322 323 322 322 322 322 321 321 319 320 316 320 319 319 319 319 319 319 319 319 318 318 318 319 319 317 317 317 318 318 318 317 317 317 316 317 316 316 316 315 314 312 310 309 310 311 309 308
296 297 297 297 296 296 296 296 297 297 297 298 300 301 303 306 309 311 312 314 316 318 319 320 321 321 322 322 322 322 322 322 322 322 322 321 321 322 322 322 323 322 321 320 320 320 320 319 320 320 320 319 320 320 320 319 319 318 318 318 319 319 318 317 317 317 318 318 317 316 317 317 317 315 315 314 312 310 310 309 308 308 308 309 310
296 296 296 297 297 295 295 294 295 295 295 296 296 297 300 304 307 309 311 312 313 315 317 318 320 321 321 322 322 322 322 322 322 322 321 321 321 322 322 322 322 322 321 321 321 321 320 320 319 320 320 320 320 320 320 320 319 319 319 318 318 318 317 317 317 317 317 317 316 315 315 315 315 314 313 312 310 308 308 307 306 305 306 307 307
297 296 297 298 297 296 293 291 292 292 291 292 293 295 298 301 304 307 309 310 312 314 316 317 318 319 319 320 321 321 321 322 322 322 322 322 322 321 322 322 322 321 321 320 320 321 321 320 320 319 320 320 320 320 320 320 319 319 319 318 318 317 317 316 315 315 316 316 315 314 315 314 314 313 312 310 307 306 304 305 304 303 303 305 305
296 296 296 296 295 295 293 290 289 288 290 290 292 292 294 297 303 305 307 309 311 312 314 316 316 318 318 319 320 320 321 321 321 321 321 322 322 321 322 321 320 322 321 321 321 321 321 320 320 320 320 320 320 321 320 320 318 318 318 319 318 316 315 316 316 315 314 314 314 313 313 314 312 311 309 307 306 304 302 301 300 301 303 304 304
296 295 294 293 292 291 290 290 290 290 291 291 290 291 293 295 297 301 305 308 309 311 311 313 314 315 316 317 317 317 317 317 318 319 319 320 321 320 320 320 320 320 320 321 321 321 320 320 320 320 320 319 320 320 320 319 318 318 317 317 318 317 316 315 314 314 314 314 312 311 312 312 308 307 307 306 303 301 299 300 300 299 300 303 303
293 292 291 291 291 290 289 291 292 291 290 291 291 291 292 293 294 297 300 304 303 306 307 308 310 312 313 313 314 314 312 313 315 317 317 318 319 318 317 318 320 320 318 319 321 320 319 319 319 318 318 318 318 318 318 318 319 317 317 318 316 316 315 315 315 314 314 313 311 310 310 309 304 304 303 299 297 298 297 298 299 297 297 298 297
293 293 293 292 292 293 293 293 292 292 291 291 291 292 292 292 292 293 296 297 300 300 303 306 306 308 308 309 310 310 310 311 312 314 314 315 315 314 313 315 318 318 319 318 317 318 319 318 318 318 317 317 317 317 318 317 318 318 317 317 316 315 314 314 314 314 307 311 309 308 309 305 301 302 299 297 296 295 295 294 295 295 294 295 294
294 292 291 294 294 293 292 291 291 291 292 292 291 291 291 291 292 291 293 293 295 294 299 302 303 304 306 305 307 307 308 310 310 310 311 311 311 311 312 313 316 319 317 317 317 316 317 317 317 317 317 317 317 317 317 317 316 315 315 315 315 314 313 313 313 313 313 311 310 310 309 304 300 301 300 297 295 295 294 294 295 295 295 293 292
295 294 293 291 291 292 293 293 292 292 290 291 291 292 291 290 291 290 290 291 291 292 294 298 300 302 305 305 306 306 308 308 307 308 306 306 307 309 310 311 311 314 316 315 315 315 314 316 316 316 316 316 317 316 316 316 315 314 313 312 312 312 311 311 311 311 310 309 309 308 305 300 299 300 300 297 296 295 294 295 295 295 293 292 290
294 293 292 292 293 293 293 293 292 292 290 289 290 290 291 291 292 291 290 289 289 289 291 293 297 299 301 304 304 304 305 306 305 304 305 305 305 305 307 308 307 310 312 313 313 314 314 313 315 315 316 316 316 315 314 313 312 312 312 311 311 310 310 309 307 307 306 305 304 303 302 301 301 300 299 297 295 294 294 294 293 292 291 290 289
295 295 295 293 292 293 294 294 293 291 290 290 290 290 289 289 289 290 289 290 288 288 290 291 293 296 299 300 300 300 300 301 301 302 303 303 303 304 303 304 304 306 308 310 311 312 312 311 312 313 313 312 313 312 312 311 311 310 311 310 310 309 308 307 304 300 298 299 298 298 297 297 297 293 293 294 294 295 297 296 295 293 291 290 290
296 297 296 294 292 292 293 293 292 292 292 291 291 291 290 291 291 290 290 290 287 288 290 290 291 294 296 296 296 297 298 299 300 301 301 300 300 299 300 299 301 302 303 304 305 307 308 309 308 307 307 308 309 311 302 302 303 309 309 309 308 306 305 304 300 297 294 293 294 293 293 291 290 290 290 292 293 292 293 296 296 292 290 290 289
297 296 296 295 293 291 291 291 293 293 292 292 293 293 291 290 291 290 290 290 288 288 290 291 291 292 293 293 294 295 296 297 299 299 298 297 298 296 297 297 298 298 299 299 299 301 301 303 305 306 304 305 306 306 299 301 301 302 306 307 305 304 302 299 298 297 295 292 290 291 291 289 289 288 290 290 292 291 291 292 292 291 291 291 288
298 298 297 297 297 296 293 293 294 293 292 292 292 292 290 291 291 291 290 289 287 289 291 292 292 292 293 293 293 294 295 296 295 296 296 295 295 294 295 296 296 295 295 294 296 298 299 299 301 301 302 302 303 298 300 300 300 300 300 304 304 302 299 297 296 296 295 292 291 290 289 290 291 292 292 291 291 290 290 290 290 290 290 290 291
298 299 299 298 297 297 296 295 293 294 293 293 292 291 292 293 293 291 289 289 288 289 291 292 292 292 293 293 293 293 294 294 294 294 294 293 293 294 294 294 294 294 293 294 297 297 297 297 298 299 299 298 298 297 298 299 299 299 299 300 302 300 296 295 295 295 294 292 290 289 289 289 289 287 288 290 290 290 289 289 289 288 289 290 291
297 297 297 297 296 295 295 294 294 294 293 293 291 292 293 292 291 289 289 290 290 289 291 292 292 292 293 292 292 292 293 294 293 293 293 293 293 295 294 294 293 291 293 294 294 295 295 295 296 297 298 296 296 294 296 297 297 297 298 299 299 297 295 294 294 293 292 291 290 290 290 288 288 289 289 289 289 289 289 289 289 288 288 287 288
298 298 299 299 297 295 295 294 293 293 292 291 291 292 291 290 289 289 289 290 290 290 291 292 293 293 292 292 292 292 292 293 293 292 292 293 294 294 292 292 292 292 293 294 293 293 292 293 293 293 294 294 295 293 295 296 296 297 297 297 294 293 292 291 291 291 291 291 291 291 291 290 288 288 288 288 288 288 288 288 287 287 286 286 286
298 298 300 301 301 299 298 299 298 292 292 291 292 293 291 291 289 290 289 290 291 291 292 292 292 292 292 292 291 291 292 292 292 292 292 293 293 293 292 290 290 291 291 291 291 291 292 291 291 292 292 293 291 292 294 294 295 296 296 293 292 291 291 290 290 290 290 290 290 290 290 289 288 288 287 288 288 287 286 286 285 285 284 284 284
302 301 300 302 301 301 301 297 294 294 294 294 293 290 290 289 289 289 289 289 290 291 292 292 292 292 292 292 292 292 292 292 292 292 292 292 292 291 290 289 290 290 290 290 290 289 290 291 290 290 292 292 290 291 293 293 294 295 293 291 290 290 289 289 289 289 289 289 290 290 290 290 288 287 287 289 289 287 286 285 285 284 283 283 284
301 302 300 299 299 299 297 295 295 294 294 294 291 290 290 290 290 289 289 289 289 290 291 291 292 292 292 292 292 293 292 292 292 292 292 292 291 290 290 289 291 290 289 289 289 289 289 290 290 290 291 292 290 289 291 293 294 294 292 291 290 290 289 288 288 288 289 289 288 286 288 289 288 287 288 289 289 287 286 285 285 284 282 282 282
298 299 299 300 300 299 297 295 293 293 295 293 291 290 290 290 290 290 289 290 290 291 291 291 292 293 292 292 293 293 293 292 292 292 292 291 290 290 290 289 290 290 290 289 289 290 288 288 288 289 288 291 290 288 290 292 293 293 291 290 290 290 288 287 287 287 286 286 286 286 286 287 287 287 289 290 289 287 286 285 285 284 283 281 281
297 296 296 296 295 294 296 297 296 295 295 292 290 289 290 291 291 290 289 290 291 292 293 293 292 291 292 292 292 292 292 292 291 291 291 290 290 290 289 289 289 290 290 289 289 289 288 288 287 287 288 289 289 289 289 292 292 292 291 290 290 290 288 287 287 287 286 285 285 286 286 288 288 289 289 290 289 287 286 285 284 283 281 281 281
295 296 293 294 295 295 296 296 297 297 295 292 290 290 291 291 291 290 290 291 292 293 293 292 291 291 291 291 292 292 292 291 291 291 290 290 290 290 289 288 289 289 289 288 288 288 288 287 286 286 287 287 288 288 288 291 292 292 291 290 289 290 289 288 287 286 287 287 285 285 286 287 289 289 289 290 289 288 286 284 283 283 283 282 280
291 291 291 292 293 293 294 294 295 295 293 291 289 290 291 292 291 291 292 293 292 293 292 290 290 291 291 291 291 291 291 291 290 289 289 289 288 288 288 288 289 289 288 287 287 287 287 286 286 286 286 286 286 287 288 289 291 291 291 291 290 289 289 288 287 287 286 286 285 285 284 286 288 289 289 289 290 289 287 285 284 285 285 285 280
292 293 293 290 292 293 294 294 295 294 292 289 288 289 291 291 291 292 294 293 292 292 291 290 290 289 289 289 290 290 290 290 289 289 289 288 288 288 287 288 288 287 288 287 287 287 286 286 285 286 286 286 286 286 287 288 289 291 291 291 290 289 290 288 288 287 287 286 285 284 284 285 287 288 288 289 289 290 287 285 286 286 286 284 280
290 290 290 289 290 291 292 293 293 294 292 289 288 289 290 290 291 294 293 291 291 290 289 289 288 289 288 288 289 289 289 289 289 289 289 288 287 287 287 288 288 288 288 287 287 287 287 286 285 285 285 285 285 287 287 287 288 290 291 291 290 290 289 288 288 288 287 286 284 284 284 285 287 287 288 288 289 289 287 287 287 287 285 281 277
290 291 290 288 289 290 290 291 292 292 292 290 288 288 289 289 293 293 290 290 290 288 288 288 288 288 288 288 288 289 289 288 288 289 288 288 287 287 287 287 288 288 288 287 287 287 287 286 286 285 285 285 285 286 287 287 287 288 290 290 290 289 289 288 286 286 286 285 285 285 285 286 286 287 288 288 288 288 288 287 287 286 282 279 278
289 289 290 289 288 287 288 288 290 291 291 290 289 288 288 291 293 291 290 289 288 287 287 288 288 288 288 288 288 288 288 288 288 289 289 289 288 288 288 287 288 288 288 288 287 287 287 286 286 286 286 285 285 286 286 287 287 287 287 288 289 288 287 286 285 285 284 285 285 285 285 286 286 286 286 285 286 287 287 286 285 282 279 278 277
289 290 289 289 288 288 288 288 288 290 290 290 289 288 288 289 289 289 288 287 287 287 287 287 287 287 287 287 287 288 288 288 288 289 289 289 289 288 288 287 288 288 288 288 287 287 287 286 286 286 285 285 285 285 286 286 287 287 287 287 287 286 285 284 284 284 284 284 284 284 284 284 284 284 283 283 282 284 284 284 283 280 279 278 277
289 289 288 287 287 287 287 287 288 289 289 289 288 288 288 287 287 287 286 286 287 287 287 287 287 287 287 287 288 287 288 288 288 288 288 288 288 288 288 288 288 289 288 288 287 287 287 287 286 286 285 285 285 285 285 286 286 287 287 287 286 285 284 284 283 283 283 282 282 282 281 280 279 278 277 276 275 275 276 278 278 279 278 277 277
288 288 287 287 287 287 287 287 287 288 287 287 287 287 286 285 285 285 285 285 286 286 287 286 286 287 287 287 288 288 288 288 288 288 288 288 288 288 288 288 289 290 290 290 288 288 288 288 287 286 285 285 284 284 285 286 287 287 287 286 285 284 283 282 282 282 278 278 278 278 277 277 277 276 275 274 273 275 274 273 274 278 280 280 279
287 287 286 286 286 286 286 286 286 286 286 285 285 285 283 280 281 283 283 285 286 286 285 286 286 287 287 287 288 288 288 288 288 287 287 286 286 288 288 289 288 287 288 288 289 289 288 288 287 287 287 287 286 286 286 286 286 287 287 287 286 285 283 281 282 282 280 278 276 276 275 275 275 275 274 274 273 272 273 273 274 277 278 279 280
287 286 286 286 286 285 285 284 285 284 283 283 283 283 282 282 282 284 284 285 285 286 286 286 286 287 287 287 288 288 288 288 287 287 286 285 283 284 285 287 287 287 287 287 288 288 288 288 288 286 285 285 286 287 286 286 286 287 287 287 286 284 283 283 283 279 277 275 274 274 273 273 273 274 274 273 271 272 271 272 271 272 274 277 278
Wind_Speed
11 9 8 8 9 10 9 8 9 10 9 10 11 11 12 11 10 12 10 9 8 11 11 10 12 10 8 10 10 8 8 8 9 9 11 11 9 8 8 8 7 8 8 9 10 9 7 6 7 6 6 6 6 7 5 5 5 5 4 4 5 4 4 3 3 3 3 1 1 1 2 1 3 4 4 3 4 3 2 3 3 3 3 3 3
6 8 9 7 8 8 8 8 9 11 12 12 13 13 12 12 12 11 8 9 11 11 11 13 12 11 9 9 7 8 9 10 10 11 12 10 10 10 9 8 8 8 8 9 8 9 9 9 10 7 8 8 7 5 6 6 6 5 4 4 4 6 5 7 5 5 2 5 4 2 2 1 1 2 4 5 4 3 3 4 4 4 4 3 3
8 11 10 9 7 9 9 9 9 12 13 13 13 11 12 11 11 11 9 10 11 12 11 11 12 12 12 10 11 10 11 9 9 9 9 10 11 10 9 9 9 9 10 9 9 9 8 8 9 7 8 6 8 9 7 7 6 7 7 6 5 4 4 4 8 8 5 2 1 1 3 2 2 2 3 3 4 4 4 4 4 4 6 5 4
11 12 13 10 9 9 9 9 12 11 11 10 11 13 10 12 12 12 12 11 10 12 14 12 12 11 11 9 9 9 9 10 10 9 10 11 11 9 9 9 10 10 10 10 9 9 9 9 7 8 10 8 7 8 10 10 8 8 8 8 6 7 6 7 8 9 4 6 2 6 1 1 6 4 4 2 3 4 5 5 4 4 5 5 4
12 11 11 10 9 11 13 13 10 11 12 12 12 13 10 15 15 14 12 13 12 12 12 10 9 8 8 5 4 6 3 5 8 10 11 10 9 10 10 11 12 10 9 10 9 10 9 9 9 8 8 10 9 9 8 8 8 7 8 9 10 9 8 6 6 8 8 8 5 4 1 2 6 2 1 3 3 4 5 5 5 6 5 5 6
13 14 14 12 11 11 11 11 11 12 13 14 14 14 13 12 12 13 11 12 12 14 14 10 10 9 10 11 10 10 11 10 13 14 12 12 12 9 11 12 11 9 9 10 10 9 10 10 9 8 8 9 11 10 6 6 9 11 10 9 9 10 7 6 6 7 9 8 6 7 4 6 3 3 2 4 1 2 0 4 5 7 6 7 6
10 11 12 13 14 12 12 12 13 13 15 12 12 14 14 13 14 14 12 12 14 13 14 12 10 9 14 14 12 12 13 11 9 8 9 8 7 10 9 10 9 11 10 10 10 10 9 9 10 10 9 8 8 9 11 11 10 10 7 10 9 7 7 9 10 8 5 7 8 7 4 3 2 5 6 2 3 2 4 4 5 4 5 7 7
11 12 13 14 14 13 15 14 12 15 14 9 11 12 14 16 15 14 13 14 13 13 14 15 12 12 13 14 13 12 13 13 13 12 10 9 10 9 8 9 11 10 10 10 10 10 10 10 10 9 9 9 8 11 10 9 8 8 10 10 7 7 9 10 10 8 9 7 9 9 7 4 4 7 5 7 7 8 4 1 2 3 3 5 6
10 12 14 14 13 13 12 11 13 12 10 11 13 13 13 13 13 12 13 13 13 15 15 16 16 14 14 12 13 13 14 12 8 8 10 9 11 10 9 9 9 10 10 10 10 12 11 12 12 9 10 9 9 8 8 8 11 11 10 11 12 11 9 10 8 8 11 8 7 9 8 8 5 3 1 2 7 7 8 6 5 1 2 6 7
10 12 13 12 12 12 10 9 8 11 10 10 11 10 11 10 12 14 15 11 12 14 15 17 18 15 12 14 17 13 11 10 9 10 10 9 12 12 10 8 8 9 10 11 11 12 12 12 12 13 11 10 10 9 9 11 10 11 12 11 11 11 9 10 11 9 8 9 9 7 9 7 5 3 2 3 4 4 7 5 6 9 7 7 6
8 9 11 12 11 9 8 9 11 8 8 9 11 11 10 11 12 14 16 11 12 14 15 16 15 14 15 18 19 18 15 12 9 9 8 8 10 10 10 9 9 9 9 10 12 12 12 12 11 10 10 11 11 12 12 11 11 12 12 12 13 13 11 12 11 11 10 10 11 9 9 10 10 10 9 8 9 6 4 8 8 8 11 8 7
7 8 11 9 9 10 8 11 11 10 7 9 10 10 11 12 12 15 14 15 14 14 15 15 13 15 16 16 17 16 13 11 12 12 12 13 13 10 9 8 10 9 10 9 10 11 11 10 12 11 11 11 12 9 10 10 10 10 10 11 12 12 11 11 12 12 13 10 12 11 10 10 9 8 7 9 9 10 10 9 8 4 2 6 3
8 9 8 8 9 10 9 11 9 9 10 11 12 10 11 11 13 14 16 15 14 14 15 17 16 15 16 16 15 13 14 14 12 12 11 10 9 10 11 11 10 10 11 11 11 13 11 10 11 12 11 11 12 11 12 12 11 11 12 13 12 13 12 14 12 14 14 13 12 10 9 10 9 8 8 9 9 9 9 10 8 5 8 3 2
10 9 9 9 9 9 10 10 10 9 10 11 11 10 10 11 13 15 17 13 13 14 15 15 17 17 16 16 16 13 13 14 12 12 11 9 8 9 11 12 11 12 10 13 11 12 11 12 11 12 12 11 12 12 12 12 12 11 12 13 13 12 11 14 14 14 12 13 9 9 10 10 8 8 11 9 10 9 7 10 9 3 4 5 1
9 9 10 11 12 12 11 11 10 10 9 9 8 10 10 11 12 15 15 14 14 15 14 17 16 17 16 16 16 13 14 11 11 12 12 11 8 9 9 11 10 12 12 11 9 12 13 11 11 12 12 11 11 11 10 11 11 11 11 13 12 11 13 12 12 13 12 12 12 11 11 11 11 9 8 9 9 10 11 11 9 7 4 4 5
7 7 10 12 12 10 10 10 10 9 9 8 9 8 9 13 13 15 16 15 14 15 15 16 16 14 15 16 16 15 12 12 10 10 10 11 12 10 11 9 9 8 9 9 10 11 12 10 11 10 9 10 11 12 11 10 11 11 11 10 12 8 10 13 11 11 13 13 13 12 10 11 10 10 10 11 10 10 10 9 9 10 11 9 5
12 8 10 12 8 8 10 10 10 9 9 10 10 10 11 11 11 13 14 11 13 15 16 14 14 14 15 16 15 14 15 15 13 15 14 12 12 11 9 10 10 9 9 9 10 11 11 11 11 11 12 8 10 11 11 11 10 10 11 11 11 10 10 12 11 11 11 12 11 12 11 10 10 10 10 10 10 9 10 9 9 11 10 11 6
9 8 9 11 10 11 10 9 11 11 11 11 12 9 8 9 11 13 12 13 14 13 14 13 14 15 15 15 15 15 14 15 15 14 13 11 11 11 10 9 11 10 9 9 10 11 10 11 11 11 11 11 11 10 11 11 11 10 11 11 10 10 11 10 11 12 12 11 12 11 11 10 9 9 10 11 10 10 9 9 9 10 10 11 10
11 11 10 11 11 11 10 12 11 10 11 11 10 7 8 9 10 11 13 14 13 11 12 12 13 12 12 14 15 15 14 14 14 13 11 11 13 12 12 12 9 9 9 9 10 10 10 11 11 11 11 11 11 11 11 10 11 10 11 10 10 10 10 11 11 11 11 10 11 12 11 10 10 10 9 9 8 8 9 9 9 9 9 11 12
9 10 10 12 12 10 9 9 9 9 9 8 7 5 8 8 8 10 9 6 7 10 11 12 13 12 12 11 13 13 13 13 13 12 12 12 13 12 12 11 11 8 9 10 10 11 11 11 11 11 11 10 11 11 11 11 11 11 10 10 10 11 11 11 11 10 10 10 10 10 10 10 10 9 9 9 10 10 9 9 9 9 10 11 10
11 10 10 12 11 9 6 6 7 7 7 7 6 8 8 6 9 10 11 10 10 11 10 11 10 11 12 14 14 13 14 12 13 12 12 12 12 11 11 11 8 9 9 9 10 11 11 11 11 11 11 11 11 11 10 10 10 11 11 11 11 12 12 10 9 10 10 10 11 12 12 11 9 9 9 8 7 8 8 9 8 8 9 9 9
11 10 9 10 9 9 7 6 6 7 8 9 8 7 9 10 10 8 8 9 11 11 11 11 10 10 12 13 13 10 11 11 12 11 12 12 12 11 11 9 10 10 9 10 11 10 10 11 11 11 11 11 11 11 10 10 10 11 11 10 11 11 11 11 11 11 10 10 11 11 11 11 9 10 9 8 9 8 7 7 8 9 10 10 10
12 8 8 8 8 9 9 10 10 10 10 9 8 9 9 9 9 8 9 12 9 8 6 6 7 9 11 10 8 9 9 9 11 11 12 12 12 11 9 10 10 9 9 10 11 10 10 11 11 11 11 11 11 11 10 11 11 11 11 10 10 11 12 11 11 11 11 10 10 10 11 10 8 8 9 9 6 7 7 8 10 8 10 11 11
8 7 7 8 8 8 9 11 11 10 9 10 9 8 9 9 9 7 10 8 5 6 6 6 7 9 9 8 10 9 9 10 11 12 13 12 11 9 8 10 10 9 9 10 10 11 10 11 11 11 11 10 11 11 10 10 11 10 10 11 11 11 11 11 11 11 10 10 11 11 11 9 7 8 8 6 6 6 8 9 10 8 9 10 6
8 9 9 8 8 10 11 10 10 10 8 8 8 8 8 8 6 8 8 6 6 6 7 8 8 9 9 9 10 9 10 11 12 10 11 11 10 9 8 10 9 10 11 10 10 10 11 12 12 12 11 11 11 10 11 10 10 11 11 11 10 10 10 10 11 11 10 9 9 9 10 8 8 9 7 7 7 8 7 7 7 7 8 8 5
10 9 8 10 10 9 10 10 10 10 9 7 7 7 7 7 8 7 8 7 7 5 7 7 8 9 10 10 10 9 10 12 11 10 10 9 8 8 9 9 11 12 10 10 11 10 11 11 11 11 11 11 11 10 11 11 11 10 10 10 10 9 9 9 9 9 10 9 10 10 9 8 9 10 10 8 7 9 7 8 10 9 8 6 6
13 12 10 7 10 13 12 10 9 8 6 7 7 8 7 7 8 7 7 7 7 6 7 7 8 9 9 10 10 11 10 9 9 9 7 7 9 9 9 10 9 10 10 10 10 11 10 11 11 11 11 11 11 11 10 11 11 9 9 9 9 9 9 8 9 9 9 8 8 8 7 7 8 8 8 8 9 8 8 10 10 9 7 6 6
10 10 11 11 11 11 11 11 8 8 7 7 7 7 7 7 9 6 6 7 6 6 7 7 7 8 10 10 9 7 8 8 7 6 7 8 8 8 9 8 8 10 10 11 11 11 10 10 10 11 11 10 10 10 11 10 9 8 8 9 9 9 9 8 7 8 8 7 7 7 7 8 9 8 7 6 8 8 7 8 8 8 8 9 8
12 13 12 9 8 9 11 11 8 6 8 9 8 8 8 8 8 7 7 8 6 7 8 8 8 10 11 9 6 6 6 7 7 7 8 8 8 7 7 7 8 9 9 9 9 10 10 10 10 10 9 9 10 10 9 8 8 8 8 8 8 9 9 8 7 6 5 5 5 5 5 6 7 9 11 10 11 10 9 9 8 8 8 7 6
14 13 10 7 8 10 12 9 9 8 9 9 9 9 9 9 10 9 9 8 7 9 8 9 11 12 9 7 7 6 7 6 7 9 8 7 7 7 8 8 8 8 8 8 8 8 9 10 10 9 8 8 8 7 10 14 12 9 8 8 7 8 7 7 6 5 4 3 4 4 5 9 11 11 11 12 12 11 10 7 7 8 8 6 5
14 12 10 8 9 10 8 8 10 11 11 10 10 9 7 8 10 9 10 8 8 9 9 9 12 9 7 7 7 8 7 8 8 7 7 7 8 7 8 8 8 8 9 8 8 9 8 7 8 8 9 8 8 7 12 13 13 13 9 7 7 7 6 6 6 6 7 6 4 3 3 6 7 6 7 9 9 9 9 5 5 9 9 10 7
14 13 10 10 12 12 10 10 10 11 10 10 11 9 6 11 10 10 9 6 8 10 10 10 9 7 8 8 8 7 8 8 7 8 8 7 7 7 8 8 8 8 8 6 7 8 7 7 7 7 8 8 7 9 13 13 13 14 11 7 6 6 6 6 6 7 6 6 6 4 3 3 5 5 5 5 4 6 6 6 7 9 9 9 8
12 14 13 12 12 13 12 10 8 11 11 12 8 7 11 13 10 9 5 8 10 11 9 9 8 8 9 8 7 8 8 8 8 7 7 7 8 8 8 8 9 7 5 8 8 7 8 7 7 8 7 7 6 9 12 13 13 13 13 10 6 6 7 6 7 7 7 7 6 6 5 3 3 5 5 5 6 6 7 9 7 7 8 9 8
10 12 14 15 12 11 11 10 11 11 11 9 5 10 13 7 6 5 8 8 9 10 9 8 6 8 8 8 8 9 9 8 7 7 7 7 8 9 7 6 6 5 7 7 6 8 7 7 7 7 7 6 7 8 12 12 12 13 13 10 6 6 6 6 7 7 6 7 8 7 7 5 4 5 5 6 6 6 7 6 7 6 6 7 7
12 15 17 17 14 12 12 12 11 11 9 6 10 12 10 6 4 5 6 6 7 8 8 8 8 8 8 8 9 9 9 8 8 7 7 8 8 6 7 7 6 7 8 8 7 7 6 6 7 6 5 6 7 9 10 11 11 12 12 8 5 5 5 4 4 5 6 7 8 7 7 7 7 7 7 8 7 7 7 6 7 6 6 5 6
12 14 17 18 16 12 12 14 11 5 9 8 12 10 7 9 3 7 7 7 6 7 9 7 8 9 10 9 10 10 9 8 9 8 8 9 8 8 7 5 4 4 3 3 3 4 6 5 5 6 6 6 4 8 10 9 10 10 11 6 6 6 5 5 6 5 5 5 6 7 7 7 7 7 8 11 7 6 5 6 6 5 4 3 4
16 14 16 16 15 14 12 9 8 9 11 12 9 2 5 5 7 8 7 7 7 8 9 10 10 9 10 10 10 10 10 10 10 10 10 10 8 7 5 4 4 4 4 4 4 3 3 5 5 5 6 6 5 6 9 10 11 13 9 6 7 5 5 6 6 6 5 5 5 6 6 6 6 7 10 13 12 10 6 7 6 6 5 4 3
13 14 13 13 13 13 12 10 10 11 12 10 5 6 7 8 10 8 8 8 8 11 10 9 11 11 11 10 10 11 11 11 11 13 12 9 7 5 6 4 5 4 4 4 4 3 3 4 6 7 7 7 5 6 9 10 13 14 11 8 7 7 6 5 5 4 4 5 5 8 7 8 8 8 12 14 15 11 7 8 7 7 7 6 4
8 9 12 13 11 9 11 9 9 12 14 9 6 6 7 10 10 9 9 10 11 11 10 13 15 13 11 10 10 10 10 11 13 12 10 10 10 9 6 6 6 5 6 5 4 5 4 3 4 5 7 8 6 7 10 11 13 14 10 6 7 6 7 5 5 6 4 4 5 6 9 8 8 8 14 14 15 11 6 7 7 7 7 7 5
8 7 8 9 9 8 11 13 12 13 11 5 4 6 9 12 11 7 9 12 13 14 16 15 9 7 9 9 9 11 11 10 12 9 9 10 8 7 8 8 7 6 6 6 5 5 6 4 3 4 5 5 7 5 7 12 13 13 12 8 6 8 7 7 6 7 7 3 4 5 6 9 9 10 11 12 13 11 7 4 4 4 5 6 3
9 11 10 8 9 8 11 13 13 11 8 6 5 6 10 12 10 8 13 14 13 13 13 10 8 8 10 12 11 12 13 11 9 10 8 7 8 9 8 9 8 6 6 6 7 5 6 5 3 3 4 3 4 6 6 12 13 14 14 11 7 7 7 8 7 7 6 8 6 3 3 7 10 10 11 11 12 11 7 6 5 6 6 4 7
8 11 9 8 8 9 10 12 11 11 10 6 5 8 12 12 9 14 17 11 10 13 11 6 9 10 10 11 12 12 11 10 8 7 9 9 6 7 8 8 7 7 8 8 7 6 6 5 4 3 3 4 4 7 7 11 14 14 14 13 8 7 9 9 7 6 6 5 5 4 4 8 11 11 11 12 13 12 11 6 5 6 9 11 7
10 11 9 5 8 10 11 12 12 10 8 5 5 9 13 12 13 19 14 8 12 12 9 9 9 9 10 11 10 11 11 8 9 9 9 8 7 8 8 8 8 8 9 9 8 7 6 6 4 4 3 3 4 4 9 9 13 14 15 13 11 8 10 7 9 9 9 6 3 4 4 10 11 11 11 12 12 13 11 5 10 11 12 11 7
8 7 9 6 8 8 10 11 11 11 9 5 5 10 12 13 18 18 8 9 11 10 9 10 10 10 9 10 10 10 9 8 9 9 9 9 9 9 8 8 9 9 8 9 7 7 7 7 8 5 4 3 3 3 7 10 12 15 14 13 12 11 11 6 4 4 4 4 5 4 5 11 10 10 11 11 11 10 6 10 12 13 12 8 5
10 11 10 6 8 9 10 12 13 13 12 7 5 8 14 16 20 10 5 9 7 5 7 9 10 10 10 9 8 9 10 9 9 11 11 10 10 10 10 9 9 9 9 9 8 8 8 7 6 6 6 5 4 4 4 8 11 13 13 12 11 11 10 9 6 5 6 4 6 8 10 11 10 11 10 10 8 9 10 11 12 12 9 3 4
8 10 9 7 7 7 7 10 14 13 12 9 6 6 13 18 14 8 8 6 6 8 9 12 10 9 9 7 9 9 8 9 10 9 10 9 11 11 11 9 9 9 9 9 9 9 8 8 7 6 7 6 5 4 4 5 6 8 8 10 11 11 10 8 8 7 9 10 11 11 12 11 10 8 7 4 5 5 9 10 11 10 4 3 3
11 11 8 9 7 9 10 9 12 13 11 10 8 7 10 12 12 10 7 6 7 9 10 9 9 8 7 8 10 8 8 8 9 8 7 8 8 8 8 10 9 10 9 9 9 10 9 9 8 7 7 7 7 6 6 5 5 6 5 7 8 7 9 9 8 7 8 7 9 8 6 7 7 9 9 7 6 7 6 5 5 4 3 3 3
7 9 7 8 8 9 10 10 12 11 10 11 10 9 9 9 9 8 8 7 8 9 10 9 9 7 7 8 9 9 10 8 8 8 9 9 9 9 10 12 13 13 13 11 11 11 11 11 9 8 8 8 8 7 7 7 7 7 7 6 6 6 5 5 8 6 6 7 7 7 9 6 7 7 5 4 5 5 5 5 5 3 3 3 4
9 8 5 8 9 11 11 11 12 9 8 9 11 10 8 9 8 6 6 8 10 8 8 7 6 6 7 7 8 8 9 9 8 8 7 8 9 10 10 7 6 6 9 11 11 9 8 8 9 10 10 8 9 9 9 6 8 11 12 10 8 7 5 4 7 11 9 7 7 7 6 6 4 5 4 4 4 6 5 5 6 5 5 5 5
6 6 6 8 8 9 12 12 11 8 8 8 10 10 7 6 6 5 4 8 9 7 7 7 6 7 7 7 8 8 9 9 9 9 8 5 4 8 7 8 8 8 10 11 12 10 10 9 9 9 11 13 12 10 13 15 12 11 11 11 11 13 11 9 13 14 8 9 6 6 4 5 5 5 5 6 6 5 5 5 4 5 4 4 5
8 8 10 7 8 8 9 11 11 8 8 8 8 7 7 6 5 5 5 7 7 7 7 6 6 7 8 9 8 8 8 8 8 8 8 9 6 3 2 4 8 9 10 10 12 11 16 16 13 10 5 2 7 13 19 17 16 14 14 12 13 13 14 16 17 11 5 6 6 6 5 4 4 5 5 6 6 6 4 5 4 4 3 4 4
Wind_Direction
248 244 248 228 219 221 224 211 209 205 203 198 201 203 204 202 194 208 199 195 190 199 202 196 200 201 202 204 209 198 204 208 216 216 219 221 216 207 200 202 190 192 197 195 205 209 209 204 205 204 196 200 209 218 205 203 203 201 197 189 202 203 217 200 198 168 163 190 119 179 189 179 166 174 171 171 180 172 171 176 158 155 152 157 151
259 263 251 238 227 229 224 211 197 197 209 201 201 203 203 202 205 208 192 193 199 197 196 201 200 196 191 200 193 197 207 212 219 221 222 220 218 215 207 196 193 195 196 197 200 203 210 214 216 207 201 212 214 211 203 198 190 195 181 201 212 211 212 200 194 147 196 224 219 221 213 162 155 187 179 196 181 166 175 182 169 172 169 163 149
247 255 262 252 230 225 219 218 211 210 209 202 206 202 204 206 212 208 199 193 201 202 200 204 203 202 199 202 202 210 216 214 215 214 214 217 216 214 212 203 194 199 197 198 200 202 205 207 213 205 204 193 212 218 206 207 193 195 190 195 196 215 221 191 184 199 209 152 109 356 256 247 200 215 224 224 194 173 163 187 183 174 176 169 162
250 247 253 249 228 225 218 218 216 212 214 206 203 202 203 208 209 206 205 200 201 203 205 208 204 201 205 202 202 201 207 213 218 220 221 220 222 212 212 206 203 205 201 197 201 200 199 206 201 203 210 197 198 208 213 216 204 206 200 206 179 206 212 218 201 202 176 147 226 218 218 179 290 241 212 187 185 185 187 182 177 199 179 160 167
254 255 251 246 231 224 215 218 210 211 213 209 202 202 203 207 206 204 203 204 206 203 200 196 191 193 198 188 154 211 244 195 209 224 219 218 219 213 210 205 208 206 201 201 198 203 200 202 202 201 199 205 205 211 207 206 199 194 191 197 199 208 210 211 204 204 212 214 186 107 97 245 229 253 161 212 169 188 215 193 187 179 187 186 185
248 251 251 247 237 235 227 222 211 216 217 215 207 208 207 209 205 204 205 207 208 205 198 187 190 181 182 194 201 207 215 207 209 210 206 209 210 206 211 210 207 202 203 201 202 203 203 201 200 200 203 203 208 213 203 201 204 205 198 197 202 211 211 194 209 211 217 225 246 237 230 256 177 179 154 259 152 230 172 211 198 195 182 184 193
239 245 250 250 243 235 233 219 216 219 224 214 210 214 212 211 205 202 203 205 207 203 192 192 193 191 195 199 199 200 211 218 216 212 210 210 205 208 209 207 202 202 204 203 202 201 204 199 201 204 203 201 196 206 211 210 208 208 186 203 208 191 199 218 214 207 196 240 235 245 265 264 198 154 223 122 283 177 222 200 218 219 210 191 188
243 241 243 243 245 230 233 223 216 221 224 209 216 217 214 213 206 203 205 206 202 198 191 195 196 196 200 207 210 212 211 219 208 214 214 209 208 207 203 209 209 205 205 204 204 201 203 205 205 203 204 205 194 208 208 207 207 213 206 206 199 194 192 212 219 199 189 216 209 224 230 223 220 228 210 211 248 258 220 185 241 203 235 240 214
236 243 244 242 245 242 236 234 226 227 222 211 215 215 216 216 215 213 212 208 205 196 196 196 201 199 201 203 211 218 219 223 203 202 207 199 212 211 207 207 207 207 208 205 203 208 206 211 210 205 208 204 203 206 208 202 204 206 203 207 209 208 205 214 216 213 204 213 183 217 217 220 217 239 269 166 228 229 243 189 196 78 226 230 219
238 241 250 252 246 249 240 241 241 227 223 221 226 221 219 214 213 212 216 209 208 204 201 201 202 201 201 207 211 214 212 214 198 203 202 191 211 210 210 204 204 206 209 211 210 209 209 207 211 212 212 209 208 209 207 211 209 210 206 204 206 209 210 212 215 218 208 216 203 188 197 211 216 212 186 203 277 245 245 211 185 187 211 222 183
242 243 247 250 254 260 258 242 240 236 224 217 224 220 218 213 214 213 217 207 203 205 204 208 205 204 208 209 210 215 209 204 200 209 195 195 209 208 204 207 204 209 204 207 209 209 210 208 209 211 211 212 212 215 214 211 211 212 214 212 212 210 210 210 218 224 218 218 214 207 202 198 193 201 202 202 209 215 231 247 231 207 220 235 210
256 253 258 256 273 263 256 255 247 240 230 225 226 220 216 215 211 216 218 210 205 202 201 209 206 212 217 216 215 218 209 204 205 209 202 206 209 208 205 207 214 213 209 209 209 206 209 208 210 213 213 213 216 212 215 215 215 214 213 212 214 214 215 211 216 218 217 219 218 213 214 214 212 210 204 198 203 223 224 235 234 208 273 241 55
254 252 257 260 249 257 253 251 252 241 229 225 224 217 217 217 212 215 221 210 206 200 203 205 203 207 212 216 219 218 214 212 212 214 208 206 202 209 202 212 212 212 213 211 212 203 203 206 206 210 214 213 216 214 219 216 215 214 215 216 216 211 209 213 215 216 212 215 214 214 215 216 216 204 213 216 216 225 225 235 239 157 217 217 135
258 252 252 256 253 251 249 250 246 242 235 229 224 215 215 215 213 215 225 209 205 202 204 206 209 211 208 210 214 212 213 212 213 215 211 208 201 203 205 211 211 211 205 212 205 198 204 208 204 208 211 211 212 215 216 214 213 212 215 217 216 216 213 215 221 220 218 221 217 219 218 224 228 220 221 214 211 206 215 221 229 198 221 229 131
264 262 257 254 252 246 248 245 246 244 241 239 231 221 214 216 213 215 223 213 203 205 204 207 210 211 211 211 213 212 213 210 216 217 214 209 205 206 210 214 214 215 212 213 190 198 203 204 206 209 210 210 211 213 213 213 211 213 217 220 220 217 214 215 221 220 221 219 218 218 218 220 224 223 217 220 213 209 216 221 214 223 226 202 221
270 250 259 255 249 253 253 254 252 252 246 242 239 228 216 219 215 215 218 214 204 205 209 209 212 211 212 212 214 213 212 215 220 220 220 212 211 208 214 210 212 211 209 196 198 194 200 200 203 207 200 206 210 211 211 210 210 211 218 218 222 208 212 215 221 218 223 222 222 222 222 225 218 220 217 220 217 219 225 224 210 216 231 243 196
272 265 268 271 269 256 251 255 259 253 249 238 235 228 226 226 220 220 222 216 208 210 212 210 211 211 212 214 213 212 212 213 216 217 215 214 214 215 216 215 215 211 205 197 195 199 198 198 201 204 207 201 210 212 210 209 206 210 216 216 219 207 209 217 218 218 220 222 224 222 224 225 223 219 220 221 220 220 225 224 212 214 214 240 223
280 273 263 268 268 263 255 249 246 248 244 244 237 225 223 229 227 223 220 214 214 210 211 210 209 212 214 213 214 213 213 217 219 220 214 211 216 219 217 217 213 206 200 197 193 195 196 193 199 199 200 202 207 209 209 210 206 212 216 217 216 208 211 214 216 217 219 218 221 222 222 225 222 217 221 220 218 217 216 210 207 213 216 225 235
275 276 273 267 258 251 247 246 248 246 246 244 249 236 227 228 228 229 225 219 214 208 211 214 211 212 212 212 211 212 214 217 220 221 214 212 217 216 215 219 212 197 194 190 191 193 192 194 198 199 197 200 203 208 207 209 208 213 215 217 214 213 213 216 216 215 220 218 220 222 219 223 220 220 219 220 217 214 218 212 213 215 215 221 234
270 270 268 266 265 257 255 260 264 257 256 254 254 256 247 237 233 235 244 240 219 215 213 216 214 212 214 212 214 215 215 217 217 214 214 215 219 215 216 216 214 194 198 190 191 193 191 193 197 199 200 200 202 207 206 208 208 213 213 213 214 213 217 218 218 213 216 216 219 222 222 222 218 213 214 215 211 211 210 208 209 210 217 221 223
268 261 268 271 275 279 269 257 263 274 272 275 258 247 245 238 232 228 224 223 219 218 212 218 211 214 215 213 214 211 214 214 217 214 215 218 221 216 215 217 198 203 193 190 196 196 194 195 196 199 201 201 203 207 206 208 210 213 213 212 212 212 215 218 216 216 214 214 218 221 224 224 216 214 216 213 209 208 200 206 208 205 218 219 214
265 265 263 278 287 291 296 291 277 274 266 257 248 239 245 233 227 224 222 225 220 220 212 216 210 214 216 219 218 214 214 214 216 215 215 218 220 216 214 203 204 208 192 196 199 197 195 195 198 202 206 205 204 205 204 208 213 215 216 214 213 211 214 216 212 217 214 214 216 220 224 223 211 211 211 208 207 200 193 201 202 203 214 220 213
271 269 278 285 285 288 290 284 276 264 263 250 241 229 232 231 227 223 215 228 218 224 219 219 215 215 223 223 219 218 212 212 213 215 217 217 219 216 206 206 207 207 197 197 200 197 196 198 200 204 206 208 208 209 207 210 215 215 216 213 211 211 213 214 215 216 215 213 216 218 222 219 203 206 210 213 196 191 188 196 208 205 216 223 218
273 279 276 271 276 284 288 285 279 265 251 246 236 231 232 228 224 218 225 230 215 219 209 208 216 221 221 214 215 214 206 209 212 215 217 216 216 212 200 206 207 203 198 202 201 199 199 200 204 206 208 207 209 212 214 213 215 214 216 216 215 212 213 215 216 217 217 213 212 214 219 211 191 206 212 202 193 189 190 205 211 211 217 227 219
289 287 280 287 290 289 282 274 269 269 261 251 245 237 232 235 221 222 230 221 217 204 200 208 208 218 217 216 219 210 210 213 217 216 218 215 214 206 194 202 203 205 203 200 204 203 202 203 207 207 207 210 212 212 215 216 216 217 218 217 215 213 213 215 216 217 216 209 209 212 217 199 187 201 206 202 192 194 200 199 213 215 214 223 198
288 279 287 282 277 279 279 269 260 251 248 248 242 238 235 231 229 218 222 220 220 209 213 207 208 212 217 216 219 211 215 218 217 218 217 213 206 203 202 205 205 209 206 205 203 205 205 206 207 208 208 210 211 213 215 217 218 216 214 214 213 212 212 213 214 216 216 209 207 212 213 191 190 199 207 200 183 194 188 197 210 214 213 201 194
279 281 275 286 284 272 266 267 252 259 251 246 242 241 231 228 235 223 218 216 213 204 215 213 213 215 218 219 215 214 213 216 215 215 208 204 207 206 202 207 204 209 207 208 207 205 207 206 208 209 211 211 212 212 213 218 219 211 208 208 211 212 212 211 213 215 215 211 211 213 201 185 192 202 200 192 192 194 192 206 207 208 193 179 187
274 274 273 265 269 281 280 273 267 255 260 260 249 247 245 233 235 229 217 211 199 184 202 211 213 221 225 224 217 213 213 215 213 209 207 208 206 205 207 205 195 206 211 209 205 206 207 207 210 210 211 208 211 215 216 214 206 200 202 209 208 207 208 211 214 214 208 203 201 198 195 191 195 198 195 189 177 192 192 207 203 183 178 178 186
279 275 274 272 267 270 279 276 271 269 261 257 255 250 246 250 244 238 217 215 188 187 203 201 206 217 223 218 212 211 209 209 206 206 207 206 204 204 202 200 200 208 210 211 207 204 206 209 213 212 211 209 210 210 204 201 205 206 205 205 206 207 205 207 212 213 206 201 198 189 180 182 190 190 190 185 193 190 184 206 207 189 170 177 177
275 275 284 279 250 252 259 275 288 268 261 260 255 248 238 235 240 230 225 215 163 201 206 210 211 215 212 203 208 210 208 206 205 207 207 200 198 198 196 201 206 205 206 206 208 208 208 207 206 209 208 204 207 206 202 201 200 197 195 202 202 202 200 202 199 195 193 185 181 176 182 179 184 187 190 196 200 199 197 196 176 171 174 174 179
276 283 279 265 253 244 258 272 270 264 251 248 249 249 241 241 242 229 224 206 175 193 213 219 230 220 203 198 198 208 202 209 211 207 204 200 200 196 199 203 204 201 203 204 201 205 209 205 202 201 205 209 207 203 202 202 202 198 192 194 194 196 195 189 184 181 190 183 175 168 166 169 170 181 195 204 204 198 200 203 161 183 179 173 167
273 278 278 285 291 288 268 260 262 264 258 250 250 248 237 244 235 228 216 179 188 205 212 222 229 209 201 196 193 196 201 210 204 211 205 205 200 199 203 202 200 202 205 192 199 205 201 202 204 204 204 204 207 204 200 202 201 199 192 188 188 183 176 179 178 183 182 170 166 156 155 161 166 175 169 181 184 177 178 180 165 179 187 191 184
274 284 287 283 277 276 272 260 261 259 256 249 245 255 240 239 233 225 162 191 200 205 210 221 222 215 208 198 191 198 205 205 207 203 200 194 196 198 198 195 200 197 180 193 205 197 206 202 199 201 206 203 207 204 200 199 198 194 189 179 176 167 167 180 181 179 169 162 154 154 156 155 152 145 139 154 157 160 166 174 163 168 182 191 196
277 276 275 272 270 271 268 254 249 256 250 257 236 239 249 243 228 188 194 204 202 207 210 215 215 224 215 195 191 195 203 205 197 196 190 191 191 198 194 190 180 175 187 194 193 197 197 196 196 196 199 198 202 201 196 193 189 182 176 170 168 164 168 170 174 165 159 158 159 160 160 160 143 131 152 170 170 162 157 152 160 165 177 195 208
259 268 271 269 260 260 272 274 258 247 255 241 249 237 251 262 204 203 211 207 212 201 211 211 211 218 214 203 195 196 200 194 191 190 190 197 196 194 190 190 181 181 185 189 185 188 194 190 187 186 187 189 197 185 183 179 179 175 168 153 136 134 135 143 145 152 159 161 162 162 158 159 157 167 183 179 168 167 163 167 171 185 173 163 183
248 248 257 267 270 259 257 264 265 242 240 226 241 238 208 239 177 210 201 206 203 205 217 208 217 213 214 206 192 196 194 186 185 186 192 198 197 191 190 187 183 186 191 171 194 184 181 187 184 172 171 194 198 182 175 174 167 160 144 127 133 137 137 137 144 156 161 156 154 152 155 161 171 171 183 175 167 153 155 162 170 167 150 164 190
256 254 256 258 267 272 269 268 269 255 255 249 251 210 209 221 213 221 200 201 193 213 217 213 219 215 214 208 195 190 191 187 183 186 194 195 189 188 184 167 178 190 185 194 192 180 178 181 177 183 179 184 187 187 172 164 157 149 138 133 133 129 137 149 159 160 153 150 155 162 158 163 163 172 175 169 162 158 155 166 170 172 172 168 184
260 263 261 263 266 274 275 266 264 263 254 258 238 194 209 221 229 210 199 209 203 219 218 213 219 216 211 208 198 189 190 187 184 193 194 187 175 172 179 167 183 184 199 196 176 184 192 188 181 186 186 172 188 186 172 162 157 157 155 153 154 146 150 150 140 142 146 150 157 163 169 163 167 172 174 170 168 161 167 171 170 163 161 177 199
279 278 286 290 289 287 293 292 266 267 265 256 240 221 218 239 233 217 209 213 215 221 217 216 219 211 202 202 199 194 193 191 193 195 185 179 180 179 166 165 186 183 191 179 181 181 182 191 199 192 188 179 174 182 175 167 165 160 153 149 147 143 147 159 156 151 127 125 140 170 173 173 172 173 173 173 171 168 166 173 170 165 167 192 197
274 275 260 269 284 299 296 287 273 261 269 302 246 226 239 247 248 220 221 224 221 220 221 222 213 185 193 194 200 200 199 199 200 187 182 182 168 165 177 178 183 183 181 178 180 181 177 186 178 180 184 182 166 168 174 169 166 162 156 151 152 147 158 165 169 163 160 162 165 169 179 174 169 171 175 174 172 167 163 151 144 156 165 211 169
286 282 287 293 289 285 280 282 287 287 283 262 223 232 249 250 250 240 238 231 226 229 231 222 197 191 191 196 197 201 200 204 201 190 177 167 174 176 169 176 180 177 164 168 175 175 171 164 165 172 166 171 171 161 178 174 169 166 160 156 164 166 161 164 169 173 173 171 176 175 165 178 171 173 174 175 174 172 153 148 165 177 185 172 147
263 270 283 287 292 290 289 290 283 283 281 263 234 242 252 254 245 243 243 233 229 235 232 205 203 203 202 198 200 204 203 198 185 172 175 181 175 166 172 175 175 171 169 170 168 166 162 154 156 159 166 168 174 172 164 179 173 171 171 169 166 176 169 158 164 177 169 172 172 161 165 180 175 172 171 176 177 175 163 151 177 164 148 144 150
308 310 299 299 298 299 296 294 297 297 289 259 226 245 255 256 249 248 244 226 231 233 216 208 209 208 205 205 207 202 197 187 183 181 175 175 167 167 171 170 172 169 170 170 171 167 159 150 156 163 167 167 166 171 173 172 177 174 176 177 175 166 172 166 165 172 181 170 146 146 161 173 173 168 172 176 179 176 165 167 164 155 151 135 119
277 261 274 297 290 289 293 294 297 296 294 274 222 254 260 259 257 256 247 233 235 225 207 207 210 209 203 205 203 199 195 185 179 172 173 170 174 175 171 175 172 170 169 168 171 168 165 162 161 162 172 176 175 167 180 175 173 176 177 175 168 162 165 168 161 157 147 141 147 149 157 165 169 171 175 178 178 172 158 165 159 154 132 117 102
292 294 299 298 286 292 298 298 296 299 299 291 243 249 265 264 263 278 259 247 241 222 209 215 215 210 207 204 189 193 191 187 180 173 176 178 175 174 173 177 171 174 173 171 173 171 171 167 158 166 174 180 181 177 170 179 175 175 174 170 160 153 143 132 132 134 140 147 143 139 145 159 167 172 174 171 164 152 155 155 153 138 122 115 120
289 295 301 299 301 293 290 292 297 298 300 298 273 236 258 266 281 298 267 256 227 217 218 219 217 210 207 184 190 194 190 190 182 184 185 183 180 179 178 175 175 179 177 174 171 172 172 170 171 171 176 177 173 170 173 165 169 166 164 162 155 152 146 139 129 135 143 139 139 141 146 151 154 157 149 132 123 136 144 145 139 125 120 120 123
297 293 310 314 315 305 299 296 294 299 303 298 294 270 254 272 280 289 290 257 235 225 227 225 215 207 189 183 190 190 188 189 188 186 185 181 180 182 179 178 182 177 178 178 172 172 173 173 175 172 170 171 173 173 172 164 160 157 154 150 141 135 126 123 118 122 122 124 126 129 125 114 94 95 93 87 82 105 112 112 108 115 121 129 136
274 292 306 301 300 295 295 295 291 293 299 300 304 295 286 278 275 275 271 259 247 234 228 224 212 195 192 187 194 186 183 186 190 187 186 185 186 185 187 187 185 181 177 183 178 180 179 176 173 168 165 170 178 180 180 172 164 157 155 151 148 143 151 154 135 123 115 111 108 104 96 84 86 80 79 67 73 68 92 104 105 110 109 107 107
301 299 306 296 300 297 289 287 285 290 295 298 300 302 301 291 280 272 253 246 247 242 238 229 202 187 194 187 191 187 190 186 186 191 198 198 189 188 192 198 210 198 190 179 178 178 173 169 162 164 166 173 177 188 193 176 172 168 160 156 159 161 149 140 137 130 111 94 97 94 105 105 109 111 103 108 103 102 84 90 98 112 128 133 136
274 278 287 289 280 278 288 289 287 294 296 295 298 303 306 301 296 283 256 250 254 247 237 232 201 195 190 184 192 191 191 189 186 186 178 174 196 195 200 188 189 198 195 186 171 177 173 163 168 180 176 171 182 187 164 163 164 164 165 164 160 154 149 140 142 137 127 120 122 117 134 136 137 134 129 128 132 125 124 109 103 126 128 133 140
301 305 294 284 285 286 285 285 289 301 296 295 295 306 313 318 310 296 275 261 259 248 243 236 215 213 199 192 192 190 188 188 188 182 175 164 127 93 63 188 187 176 181 184 184 169 172 176 170 166 176 114 144 156 161 152 153 156 156 152 149 140 139 142 137 120 94 129 137 138 151 148 142 135 134 141 137 133 125 116 101 96 69 129 135